SL-8 DEB *

Satellite information

Favourite Embed

Satellite Type and Status

DEBRISIN ORBIT

Key statistics

Satellite SL-8 DEB * at a glance.

Uptime

18118

Days in orbit

Revolutions

≈ 14.8

Per day

Orbit

LEO

Low Earth Orbit

Inclination

74.0

Latest

Satellite identification and parameters

Extended collection of information and parameters for SL-8 DEB *.

Object identification

Identified? True

Debris? True

Object name: SL-8 DEB *

International designator: 1975-094E

Object number (NORAD): 14865

Object ID (CCSDS): 14865

Country: COMMONWEALTH OF INDEPENDENT STATES (CIS)

Current information (Y/N): Y

RCS size: SMALL

Orbital parameters

Period: 97.317 minutes

Inclination: 74.0198 deg

SMA: 7008.423 km

Apoapsis: 631.265 km

Periapsis: 629.311 km

RAAN: 263.1542 deg

Eccentricy: 0.0001394

Argument of periapsis: 23.8026 deg

Mean anomaly: 103.3601 deg

Mean motion: 14.79695475 rev/day

Mean motion (dot): 0.00005171 rev/day2

B* drag term: 0.00069243 1/REarth

Two-line elements (TLE)

Creation date: May 8, 2025, 3:01 a.m.

Reference frame: TEME

Reference center: EARTH

Epoch: May 7, 2025, 7:50 p.m. UTC

TLE line 0: 0 SL-8 DEB *

TLE line 1: 1 14865U 75094E 25127.82667447 .00005171 00000-0 69243-3 0 9991

TLE line 2: 2 14865 74.0198 263.1542 0001394 23.8026 103.3601 14.79695475688504

Live tracking on map

Real-time ground track for satellite SL-8 DEB *.

In-orbit conjunctions

A list of the most updated potential collisions computed for object SL-8 DEB *.

Target Orbit TCA Probability of collision Miss distance Type
CZ-6A DEB LEO 2025-01-04 14:51:58 0.0001103326 163.0 (m) DEBRIS
CZ-6A DEB LEO 2024-12-03 19:57:52 0.0004646663 181.0 (m) DEBRIS

Associated space launch

Military communications satellite

SL-8 DEB * was lifted into orbit during the mission ‘Kosmos-3M | Strela-2M 10’, on board a Kosmos-3M space rocket.

The launch took place on Sept. 30, 1975, 6:37 p.m. from 132/1 (132L).

For more information about the launch, click the button.

Launch to space Kosmos-3M | Strela-2M 10
Kosmos-3M | Strela-2M 10

Agency: N/A

Status: Launch Successful

Launch date: Sept. 30, 1975, 6:37 p.m. UTC

Rocket: Kosmos-3M

Launch pad: 132/1 (132L)

Location: Plesetsk Cosmodrome, Russian Federation

...

Latest news about this satellite

There are no fresh news available about this satellite. Check back as we update our databases every day.


Newsletter sign-up

Weekly statistics, charts and insights to help you stay on top of the space industry.